Weather History for Sheridan, WY

Change the Weather History Date:

Wednesday, December 26, 2012

  Actual Average Record
Temperature  
Mean Temperature 7 °F 22 °F  
Max Temperature 16 °F 35 °F 67 °F (1980)
Min Temperature -2 °F 10 °F -29 °F (1996)
Degree Days  
Heating Degree Days 58 43  
Month to date heating degree days 1017 1095  
Since 1 July heating degree days 2701 2973  
Cooling Degree Days 0 0  
Month to date cooling degree days 0 0  
Year to date cooling degree days 664 419  
Moisture  
Dew Point 5 °F    
Average Humidity 83    
Maximum Humidity 95    
Minimum Humidity 70    
Precipitation  
Precipitation 0.09 in 0.02 in 0.40 in (1923)
Month to date precipitation 0.43 0.48  
Year to date precipitation 9.46 14.08  
Sea Level Pressure  
Sea Level Pressure 29.93 in    
Wind  
Wind Speed 3 mph (NW)    
Max Wind Speed 14 mph    
Max Gust Speed 16 mph    
Visibility 6 miles    
Events Snow    
T = Trace of Precipitation, MM = Missing Value Source: NWS Daily Summary

Daily Weather History Graph

Daily Weather History Graph

Search for Another Location

Airport:

Trip Planner

Search our weather history database for the weather conditions in past years. The results will help you decide how hot, cold, wet, or windy it might be!

Date:

Astronomy

Dec. 26, 2012 Rise Set
Actual Time 7:44 AM MST 4:33 PM MST
Civil Twilight 7:10 AM MST 5:06 PM MST
Nautical Twilight 6:33 AM MST 5:44 PM MST
Astronomical Twilight 5:58 AM MST 6:19 PM MST
Moon 3:30 PM MST (12/26) 6:09 AM MST (12/26)
Length of Visible Light 9h 56m
Length of Day
8h 48m
Waxing Gibbous, 98% of the Moon is Illuminated
Dec 26
Waxing Gibbous
Dec 28
Full
Jan 4
Last Quarter
Jan 11
New
Jan 18
First Quarter

Hourly Weather History & Observations

Time (MST) Temp. Windchill Dew Point Humidity Pressure Visibility Wind Dir Wind Speed Gust Speed Precip Events Conditions
12:53 AM 1.9 °F - -2.9 °F 80% 30.15 in 10.0 mi Calm Calm - N/A   Clear
1:53 AM 1.9 °F - -2.0 °F 83% 30.12 in 10.0 mi Calm Calm - N/A   Clear
2:53 AM 3.0 °F - -0.9 °F 84% 30.10 in 10.0 mi Calm Calm - N/A   Clear
3:53 AM 1.0 °F - -4.0 °F 79% 30.09 in 10.0 mi Calm Calm - N/A   Partly Cloudy
4:53 AM 1.0 °F -6.7 °F -2.9 °F 83% 30.08 in 10.0 mi SE 3.5 mph - N/A   Clear
5:53 AM 1.9 °F - -2.0 °F 83% 30.06 in 10.0 mi Calm Calm - N/A   Clear
6:53 AM 1.0 °F -6.7 °F -4.0 °F 79% 30.07 in 10.0 mi North 3.5 mph - N/A   Clear
7:53 AM 1.9 °F - -0.9 °F 88% 30.05 in 10.0 mi Calm Calm - N/A   Mostly Cloudy
8:53 AM 3.0 °F - -0.0 °F 87% 30.06 in 10.0 mi Calm Calm - N/A   Overcast
9:53 AM 7.0 °F - 3.0 °F 84% 30.05 in 10.0 mi Calm Calm - N/A   Overcast
10:53 AM 9.0 °F - 3.0 °F 77% 30.04 in 10.0 mi Calm Calm - N/A   Mostly Cloudy
11:53 AM 12.0 °F - 5.0 °F 73% 30.00 in 10.0 mi Calm Calm - N/A   Overcast
12:53 PM 12.9 °F - 6.1 °F 74% 29.94 in 10.0 mi Calm Calm - N/A   Overcast
1:53 PM 14.0 °F - 7.0 °F 74% 29.92 in 10.0 mi Calm Calm - N/A   Overcast
2:53 PM 15.1 °F - 8.1 °F 74% 29.92 in 10.0 mi Calm Calm - N/A   Overcast
3:53 PM 14.0 °F 6.5 °F 7.0 °F 74% 29.93 in 10.0 mi NNE 4.6 mph - N/A   Overcast
4:53 PM 12.9 °F 5.2 °F 7.0 °F 77% 29.94 in 6.0 mi NNE 4.6 mph - 0.00 in Snow Light Snow
5:24 PM 12.2 °F 4.3 °F 6.8 °F 79% 29.71 in 2.5 mi NNE 4.6 mph - N/A Snow Light Snow
5:53 PM 12.0 °F 5.9 °F 8.1 °F 84% 29.94 in 2.5 mi NNW 3.5 mph - 0.01 in Snow Light Snow
6:00 PM 12.2 °F 4.3 °F 8.6 °F 85% 29.71 in 2.0 mi NNW 4.6 mph - 0.00 in Snow Light Snow
6:53 PM 12.9 °F 6.9 °F 9.0 °F 84% 29.94 in 2.0 mi WNW 3.5 mph - 0.01 in Snow Light Snow
7:04 PM 12.2 °F 4.3 °F 8.6 °F 85% 29.72 in 1.8 mi WNW 4.6 mph - 0.01 in Snow Light Snow
7:14 PM 12.2 °F 6.1 °F 8.6 °F 85% 29.72 in 2.0 mi NW 3.5 mph - 0.01 in Snow Light Snow
7:53 PM 12.9 °F 6.9 °F 10.0 °F 88% 29.94 in 2.0 mi NW 3.5 mph - 0.02 in Snow Light Snow
8:01 PM 12.2 °F 4.3 °F 10.4 °F 92% 29.72 in 2.5 mi NW 4.6 mph - 0.00 in Snow Light Snow
8:08 PM 14.0 °F 5.1 °F 10.4 °F 86% 29.72 in 3.0 mi NW 5.8 mph - 0.00 in Snow Light Snow
8:53 PM 12.9 °F 3.8 °F 9.0 °F 84% 29.94 in 5.0 mi NW 5.8 mph - 0.00 in Snow Light Snow
9:12 PM 12.2 °F 1.7 °F 8.6 °F 85% 29.72 in 2.0 mi NW 6.9 mph - 0.01 in Snow Light Snow
9:53 PM 12.9 °F 2.6 °F 9.0 °F 84% 29.93 in 2.0 mi WNW 6.9 mph - 0.02 in Snow Light Snow
10:53 PM 12.9 °F -0.2 °F 9.0 °F 84% 29.94 in 2.0 mi WNW 10.4 mph - 0.01 in Snow Light Snow
11:37 PM 12.2 °F -2.5 °F 8.6 °F 85% 29.73 in 1.8 mi WNW 12.7 mph - 0.01 in Snow Light Snow
11:45 PM 12.2 °F -2.5 °F 8.6 °F 85% 29.73 in 2.0 mi WNW 12.7 mph - 0.01 in Snow Light Snow
11:53 PM 12.0 °F -3.4 °F 8.1 °F 84% 29.94 in 1.8 mi WNW 13.8 mph - 0.02 in Snow Light Snow